Location: Ocean City
(38.3360°N, 75.0850°W)
Time: 07:27:19
(UTC-05:00)

Explorer 11/Cluster Stage 4 - Visible Passes

Search period start: 22 November 2019 00:00
Search period end: 02 December 2019 00:00
Orbit: 467 x 1259 km, 28.8° (Epoch: 22 November)

Date Brightness Start Highest point End Pass type
(mag) Time Alt. Az. Time Alt. Az. Time Alt. Az.
22 Nov 8.3 17:40:02 10° SSW 17:42:42 15° SSE 17:45:39 10° ESE visible
22 Nov 8.2 19:26:03 10° SW 19:28:30 24° SSW 19:28:30 24° SSW visible
23 Nov 8.2 17:29:17 10° SSW 17:31:58 16° SSE 17:34:59 10° ESE visible
23 Nov 8.0 19:15:32 10° SW 19:18:25 26° SSW 19:18:25 26° SSW visible
24 Nov 8.1 17:18:34 10° SSW 17:21:17 17° SSE 17:24:17 10° ESE visible
24 Nov 7.8 19:05:02 10° SW 19:08:20 27° S 19:08:20 27° S visible
25 Nov 8.0 17:07:54 10° SSW 17:10:35 17° SSE 17:13:34 10° ESE visible
25 Nov 7.7 18:54:33 10° SW 18:58:16 27° S 18:58:16 27° S visible
26 Nov 7.7 18:44:06 10° SW 18:47:39 25° S 18:48:14 24° SSE visible
27 Nov 7.8 18:33:40 10° SW 18:37:00 23° S 18:38:15 20° SSE visible
28 Nov 7.9 18:23:17 10° SW 18:26:22 21° S 18:28:19 16° SSE visible
29 Nov 8.0 18:12:55 10° SW 18:15:44 19° S 18:18:28 11° SE visible
30 Nov 8.1 18:02:36 10° SW 18:05:07 17° S 18:07:50 10° SSE visible
01 Dec 8.3 17:52:20 10° SW 17:54:29 15° S 17:56:45 10° SSE visible
